Погода в Псыже

Россия / Карачаево-Черкесская Республика     44°14′06″N   42°00′56″E
темп.,
°C
ветер,
м/с
пор.,
м/с
влажн.,
%
обл.,
%
осадки,
мм/ч
давл.,
гПа
погр.,
м
23 января, сб
сб2300:00−3ю23580 0.0 102822
03:00−4ююз22560 0.0 102722
06:00−4ююз235910 0.0 102722
09:00−2ююв22595 0.0 102622
12:00+3юв118953 0.0 102524
15:00+3вюв117824 0.0 102322
18:000ююв22660 0.0 102522
21:00−1ююв236310 0.0 102522
24 января, вс
вс2400:00−1ю236467 0.0 102422
03:00−1ю236133 0.0 102323
06:00−1ю23590 0.0 102223
09:000ю23600 0.0 102127
12:00+4вюв11790 0.0 101949
15:00+3вюв227349 0.0 101828
18:000юв227594 0.0 101924
21:00+1ю226599 0.0 101922
25 января, пн
пн2500:00+2ю2359100 0.0 101924
03:00+2юз235997 0.0 101923
06:00+2юз2360100 0.0 102024
09:00+3ююз225897 0.0 102023
12:00+6ююв116767 0.0 101729
15:00+6в11621 0.0 101623
18:00+1вюв22700 0.0 101722
21:00+2ююв236543 0.0 101725
26 января, вт
вт2600:00+2ю3356100 0.0 101728
03:00+3ююз3357100 0.0 101833
06:00+1юз225784 0.0 101824
09:00+3ююв335266 0.0 101930
12:00+8вюв494891 0.0 1017409
15:00+8вюв5105476 0.0 1015306
18:00+3юв236499 0.0 101628
21:00+3ююв226399 0.0 101522
27 января, ср
ср2700:00+3ю226228 0.0 101422
03:00+3ю225960 0.0 101222
06:00+2юв2261100 0.0 101323
09:00+3вюв228286 0.0 101436
12:00+7вюв2257100 0.0 1006110
15:00+4в3474100 0.0 1007151
18:00+5ю1270100 0.0 100723
21:00+2вюв1176100 0.0 100722